Regional Weather Roundup
Issued by NWS

Home | Current Version | Previous Version | Text Only | Print | Product List | Glossary On
Versions: 1 2 3 4 5 6 7 8 9 10 11 12 13 14 15 16 17 18 19 20 21 22 23 24 25 26 27 28 29 30 31 32 33 34 35 36 37 38 39 40 41 42 43 44 45 46 47 48 49 50
000
ASUS46 KSTO 011504
RWRCA

NORTHERN AND CENTRAL CA REGIONAL WEATHER ROUNDUP
NATIONAL WEATHER SERVICE SACRAMENTO CA
800 AM PDT TUE SEP 01 2015

NOTE: FAIR INDICATES FEW OR NO CLOUDS BELOW 12,000 FEET WITH NO
SIGNIFICANT WEATHER AND/OR OBSTRUCTIONS TO VISIBILITY.

CAZ001-003-011600-
NORTHWEST AREA

CITY           SKY/WX    TMP DP  RH WIND       PRES   REMARKS
CRESCENT CITY  SUNNY     57  54  89 E5        29.97R
UKIAH          SUNNY     58  50  75 CALM      29.89R
$$

CAZ006-505>513-011600-
BAY AREA

CITY           SKY/WX    TMP DP  RH WIND       PRES   REMARKS
SANTA ROSA     SUNNY     57  53  86 CALM      29.86R
SAN RAFAEL     N/A       MM  MM  MM MISG
NAPA           CLOUDY    62  59  90 CALM      29.88R
CONCORD        SUNNY     65  56  72 SW14      29.87R
OAKLAND CITY   N/A       MM  MM  MM MISG
OAKLAND        MOSUNNY   64  57  78 S5        29.88S
SAN FRAN CITY  N/A       61  MM  81 MISG
SAN FRAN ARPT  MOSUNNY   62  55  77 CALM      29.88S
LIVERMORE      SUNNY     63  55  75 CALM      29.88R
HAYWARD        SUNNY     63  57  81 CALM      29.88S
REDWOOD CITY   N/A       MM  MM  MM MISG
MOFFETT ARPT   SUNNY     63  56  78 CALM      29.90R
SAN JOSE ARPT  MOSUNNY   61  57  87 SE7       29.89R
$$
CAZ034-037-514>518-011600-
CENTRAL COAST

CITY           SKY/WX    TMP DP  RH WIND       PRES   REMARKS
WATSONVILLE    CLOUDY    61  57  87 CALM      29.93R
SALINAS        CLOUDY    60  56  86 VRB3      29.93R
MONTEREY       CLOUDY    61  56  83 SW5       29.94R
SAN LUIS OBISP CLOUDY    62  56  80 SE8       29.95R
SANTA MARIA    CLOUDY    62  58  86 CALM      29.96R
$$
CAZ015-016-011600-
NORTHERN SACRAMENTO VALLEY

CITY           SKY/WX    TMP DP  RH WIND       PRES   REMARKS
REDDING        SUNNY     67  45  45 CALM      29.86
RED BLUFF      SUNNY     68  46  45 N3        29.87R
OROVILLE       SUNNY     68  50  52 E3        29.88R
$$
CAZ016>018-011600-
SOUTHERN SACRAMENTO VALLEY

CITY           SKY/WX    TMP DP  RH WIND       PRES   REMARKS
AUBURN         SUNNY     72  39  30 E6        29.90S
BEALE AFB      SUNNY     69  47  45 E3        29.84S
LINCOLN        FAIR      66  43  42 E3        29.85S
MARYSVILLE     SUNNY     64  51  62 E3        29.86R
SAC INTL ARPT  SUNNY     64  56  75 S10       29.84R
MATHER AIRPORT SUNNY     64  50  59 MISG      29.86R
DOWNTOWN SAC   N/A       66  MM  MM MISG
SAC EXEC ARPT  SUNNY     66  56  70 VRB5      29.85R
VACAVILLE      SUNNY     66  54  65 SW5       29.86R
TRAVIS AFB     SUNNY     64  58  80 SW13      29.84R
$$
CAZ019>021-011600-
SAN JOAQUIN VALLEY

CITY           SKY/WX    TMP DP  RH WIND       PRES   REMARKS
STOCKTON       SUNNY     66  55  67 NW3       29.85R
MODESTO        SUNNY     69  50  50 N5        29.85R
MERCED         SUNNY     64  51  62 CALM      29.85R
LEMOORE        MOSUNNY   69  46  43 W5        29.87R
FRESNO         MOSUNNY   70  49  47 W3        29.87R
HANFORD        SUNNY     67  54  63 CALM      29.87R
PORTERVILLE    SUNNY     68  48  49 SE3       29.88R
BAKERSFIELD    SUNNY     75  43  31 NW6       29.87R
$$
CAZ011-012-071-011600-
NORTHERN MOUNTAINS

CITY           SKY/WX    TMP DP  RH WIND       PRES   REMARKS
YREKA          PTSUNNY   56  41  57 MISG      29.99R
MOUNT SHASTA   PTSUNNY   54  43  66 CALM      29.99S
ALTURAS        SUNNY     52  36  54 CALM      30.05R
$$
CAZ011-012-071-011600-
SIERRA NEVADA MTNS

CITY           SKY/WX    TMP DP  RH WIND       PRES   REMARKS
BLUE CANYON    SUNNY     63  37  38 CALM      30.10R
TRUCKEE        SUNNY     37  28  70 CALM      30.14S
TAHOE VLY ARPT SUNNY     44  32  62 S3        30.13S
MAMMOTH LAKES  FAIR      50  28  43 CALM      30.19S
$$



USA.gov is the U.S. government's official web portal to all federal, state and local government web resources and services.